ASIASAT 4

Last updated on Thu Oct 30 2025 00:02:47 GMT+0000 (Coordinated Universal Time)

1 27718U 03014A 25302.33933485 -.00000210 00000+0 00000+0 0 9995 2 27718 4.1123 78.6339 0003006 141.7563 87.2505 1.00269602 42986
UTC large
Height (km)
Speed (km/s)
/
Latitude / Longitude
Inclination (degrees)
Orbital Period (minutes)
Azimuth
Elevation
Range (km)
Doppler Factor

Next 0 passes for location: London (51.5072 / 0.1276)

Sorry there are no passes over London.